Naples Weather Center

Moon Phase Calendar



Online Cameras

 


      

Current Conditions in Naples
1/24/2021 6:45:47 AM

63°F
Feels Like 64
Fog
Humidity
100%
Pressure
30.09"
Wind
5.8 mph (ENE)
Dew Point
63°F
UV Index
0/10 (Low)
Visibility
1 mi

Hourly Forecast

Date & Time Sun, Jan 24
6:00 AM
Sun, Jan 24
7:00 AM
Sun, Jan 24
8:00 AM
Sun, Jan 24
9:00 AM
Sun, Jan 24
10:00 AM
Sun, Jan 24
11:00 AM
Sun, Jan 24
12:00 PM
Sun, Jan 24
1:00 PM
Sun, Jan 24
2:00 PM
Sun, Jan 24
3:00 PM
Sun, Jan 24
4:00 PM
Sun, Jan 24
5:00 PM
Sun, Jan 24
6:00 PM
Sun, Jan 24
7:00 PM
Sun, Jan 24
8:00 PM
Sun, Jan 24
9:00 PM
Sun, Jan 24
10:00 PM
Sun, Jan 24
11:00 PM
Mon, Jan 25
12:00 AM
Mon, Jan 25
1:00 AM
Mon, Jan 25
2:00 AM
Mon, Jan 25
3:00 AM
Mon, Jan 25
4:00 AM
Mon, Jan 25
5:00 AM
Mon, Jan 25
6:00 AM
Mon, Jan 25
7:00 AM
Mon, Jan 25
8:00 AM
Mon, Jan 25
9:00 AM
Mon, Jan 25
10:00 AM
Mon, Jan 25
11:00 AM
Mon, Jan 25
12:00 PM
Mon, Jan 25
1:00 PM
Mon, Jan 25
2:00 PM
Mon, Jan 25
3:00 PM
Mon, Jan 25
4:00 PM
Mon, Jan 25
5:00 PM
Mon, Jan 25
6:00 PM
Mon, Jan 25
7:00 PM
Mon, Jan 25
8:00 PM
Mon, Jan 25
9:00 PM
Mon, Jan 25
10:00 PM
Mon, Jan 25
11:00 PM
Tue, Jan 26
12:00 AM
Tue, Jan 26
1:00 AM
Tue, Jan 26
2:00 AM
Tue, Jan 26
3:00 AM
Tue, Jan 26
4:00 AM
Tue, Jan 26
5:00 AM
Condition
Clouds

Clouds

Clouds

Clear

Clear

Clear

Clear

Clear

Clouds

Clouds

Clouds

Clouds

Clouds

Clouds

Clouds

Clouds

Clouds

Clouds

Clouds

Clouds

Clouds

Clouds

Clouds

Clouds

Clouds

Clouds

Clear

Clear

Clouds

Clouds

Clouds

Clouds

Clouds

Clouds

Clouds

Clouds

Clouds

Clouds

Clouds

Clouds

Clouds

Clouds

Clouds

Clouds

Clouds

Clouds

Clouds

Clouds
Temperature 63°F64°F65°F67°F70°F71°F73°F73°F73°F72°F72°F71°F70°F70°F70°F69°F68°F68°F67°F67°F67°F67°F67°F67°F66°F66°F67°F69°F71°F72°F73°F74°F74°F73°F73°F72°F71°F70°F70°F69°F69°F69°F68°F68°F68°F68°F68°F68°F
Feels Like 63°F64°F65°F68°F71°F74°F77°F76°F74°F73°F72°F73°F72°F72°F72°F71°F71°F71°F72°F71°F70°F69°F68°F67°F66°F65°F66°F68°F70°F71°F72°F73°F72°F71°F70°F70°F69°F69°F69°F70°F69°F70°F69°F69°F68°F68°F67°F66°F
Cloudiness 90%55%19%6%1%0%2%9%29%31%54%62%60%63%34%37%46%56%58%54%60%35%33%39%39%37%0%2%29%46%57%64%100%100%100%100%94%92%55%37%25%26%31%33%13%56%71%78%
Visibility 6 mi6 mi6 mi6 mi6 mi6 mi6 mi6 mi6 mi6 mi6 mi6 mi6 mi6 mi6 mi6 mi6 mi6 mi6 mi6 mi6 mi6 mi6 mi6 mi6 mi6 mi6 mi6 mi6 mi6 mi6 mi6 mi6 mi6 mi6 mi6 mi6 mi6 mi6 mi6 mi6 mi6 mi6 mi6 mi6 mi6 mi6 mi6 mi
Precipitation 0%0%0%0%0%0%0%0%0%0%0%0%0%0%0%0%0%0%0%0%0%0%0%0%0%0%0%0%0%0%0%0%0%0%0%0%0%0%0%0%0%0%0%0%0%0%0%0%
Humidity 100%94%89%82%77%74%71%68%69%72%74%75%78%78%78%80%82%84%86%86%85%84%83%82%83%84%85%82%79%77%74%73%74%76%76%79%83%85%87%89%90%91%92%92%93%92%92%92%
Dew Point 63°F62°F62°F62°F62°F63°F63°F63°F63°F63°F63°F63°F63°F63°F63°F63°F63°F63°F63°F63°F63°F62°F62°F61°F61°F61°F62°F63°F64°F65°F65°F65°F65°F66°F65°F65°F66°F66°F66°F66°F66°F66°F66°F66°F66°F66°F65°F65°F
Pressure 30.09"30.09"30.09"30.12"30.12"30.15"30.12"30.09"30.06"30.03"30.03"30.06"30.06"30.06"30.09"30.09"30.09"30.09"30.06"30.06"30.06"30.03"30.03"30.03"30.03"30.03"30.03"30.06"30.06"30.06"30.06"30.03"30"29.97"29.97"29.97"30"30"30.03"30.03"30.03"30.03"30.03"30.03"30"30"29.97"29.97"
Wind Speed 6.9 mph6.8 mph7 mph6.7 mph5.6 mph3.3 mph0.6 mph3.4 mph6.1 mph6.9 mph6.8 mph5.5 mph4.8 mph4.5 mph4.3 mph3.9 mph2.6 mph1.6 mph0.6 mph1.6 mph3 mph3.5 mph4.5 mph6.2 mph7 mph7.7 mph8.4 mph9.4 mph11.2 mph11.8 mph11.4 mph11.8 mph13.5 mph14.6 mph14 mph14.2 mph13.4 mph12.2 mph11.4 mph9.4 mph9.4 mph8.2 mph8.2 mph8.5 mph9 mph9.6 mph10.7 mph12 mph
Wind
Direction
86°
E
85°
E
75°
ENE
76°
ENE
77°
ENE
88°
E
143°
SE
227°
SW
228°
SW
241°
WSW
255°
WSW
269°
W
278°
W
290°
WNW
315°
NW
332°
NNW
330°
NNW
332°
NNW
295°
WNW
184°
S
173°
S
156°
SSE
140°
SE
125°
SE
126°
SE
125°
SE
127°
SE
130°
SE
142°
SE
149°
SSE
154°
SSE
166°
SSE
171°
S
172°
S
177°
S
171°
S
170°
S
168°
SSE
160°
SSE
152°
SSE
137°
SE
136°
SE
135°
SE
138°
SE
137°
SE
137°
SE
143°
SE
143°
SE

Daily Forecast

Date High Low Precip. Humidity
Today
Jan 24

Clear
74 °F
63 °F
0%
72%
Monday
Jan 25

Clouds
74 °F
66 °F
0%
75%
Tuesday
Jan 26

Clouds
75 °F
68 °F
0%
78%
Wednesday
Jan 27

Clouds
75 °F
68 °F
0%
75%
Thursday
Jan 28

Clouds
69 °F
58 °F
0%
48%
Friday
Jan 29

Clear
65 °F
52 °F
0%
56%
Saturday
Jan 30

Clear
69 °F
55 °F
0%
52%
Sunday
Jan 31

Clouds
72 °F
61 °F
0%
60%
Monday
Feb 1

Clear
72 °F
63 °F
0%
62%
Tuesday
Feb 2

Clouds
71 °F
64 °F
0%
50%
Wednesday
Feb 3

Clear
73 °F
62 °F
0%
54%
Thursday
Feb 4

Clear
74 °F
64 °F
0%
65%
Friday
Feb 5

Clear
75 °F
65 °F
0%
72%
Saturday
Feb 6

Clear
77 °F
69 °F
0%
73%
Sunday
Feb 7

Clear
78 °F
69 °F
0%
65%
Monday
Feb 8

Clear
78 °F
68 °F
0%
65%


Temperature 8-14 Day Outlook



Precipitation 8-14 Day Outlook




Quick Links
Naples News
Naples Photos
Naples Videos




About Us
Contact Us
Site Map
Search Site
Advertise With Us
   
Naples.USGulf.info
THE NAPLES WEBSITE

Copyright 2021, Coastal Town
Privacy    |    Legal